Regional Weather Roundup
Issued by NWS

Home | Current Version | Previous Version | Graphics & Text | Print | Product List | Glossary On
Versions: 1 2 3 4 5 6 7 8 9 10 11 12 13 14 15 16 17 18 19 20 21 22 23 24 25 26 27 28 29 30 31 32 33 34 35 36 37 38 39 40 41 42 43 44 45 46 47 48 49 50
000
ASUS44 KMEG 310400
RWRTN
TENNESSEE HOURLY STATE WEATHER ROUNDUP
NATIONAL WEATHER SERVICE MEMPHIS TN
1100 PM CDT THU JUL 30 2015

TNZ002-004-019-021-049-052-054-088>092-310500-
WEST TENNESSEE

CITY           SKY/WX    TMP DP  RH WIND       PRES   REMARKS
MEMPHIS INTL   PTCLDY    81  62  52 NE8       30.08F
NWS MEMPHIS      N/A     77 N/A N/A MISG        N/A
JACKSON        CLEAR     71  63  75 CALM      30.10S
DYERSBURG        N/A    N/A N/A N/A MISG        N/A
PARIS          CLEAR     64  63  94 CALM      30.11F
LEXINGTON      CLEAR     70  63  78 CALM      30.09S
$$

TNZ008-025-027-028-033-062-065-066-310500-
NORTH MIDDLE TENNESSEE

CITY           SKY/WX    TMP DP  RH WIND       PRES   REMARKS
NASHVILLE      CLEAR     75  62  64 N6        30.09F
CLARKSVILLE    CLEAR     69  64  84 CALM      30.10S
CROSSVILLE     CLEAR     70  60  70 N5        30.13S
$$

TNZ061-075-076-078-094-096-097-310500-
SOUTH MIDDLE TENNESSEE

CITY           SKY/WX    TMP DP  RH WIND       PRES   REMARKS
FAYETTEVILLE   CLEAR     70  61  73 N7        30.08S
TULLAHOMA      CLEAR     72  61  68 N7        30.10S
WINCHESTER     CLEAR     70  64  83 CALM      30.09S
MCMINNVILLE    CLEAR     70  64  83 N3        30.10S
COLUMBIA       CLEAR     70  64  83 CALM      30.08F
SHELBYVILLE    CLEAR     70  64  83 CALM      30.10S
$$

TNZ017-018-042-046-047-310500-
NORTHEAST TENNESSEE

CITY           SKY/WX    TMP DP  RH WIND       PRES   REMARKS
TRI CITIES     CLOUDY    71  63  75 CALM      30.08S
ELIZABETHTON   CLOUDY    73  63  68 CALM      30.08S
$$

TNZ012-013-036-069-073-074-310500-
CENTRAL EAST TENNESSEE

CITY           SKY/WX    TMP DP  RH WIND       PRES   REMARKS
KNOXVILLE      MOCLDY    77  63  61 N3        30.06R
OAK RIDGE      CLEAR     72  65  78 CALM      30.08S
GATLINBURG     CLOUDY    77  63  61 CALM      30.06R
$$

TNZ083-085-099-310500-
SOUTHEAST TENNESSEE

CITY           SKY/WX    TMP DP  RH WIND       PRES   REMARKS
CHATTANOOGA    PTCLDY    78  63  59 N12       30.04S
$$

SKY/WX REPORTED AS FAIR MEANS FEW OR NO CLOUDS BELOW
12 THOUSAND FEET.



USA.gov is the U.S. government's official web portal to all federal, state and local government web resources and services.